Fort Indiantown Gap, PA

9:46 PM EDT on May 26, 2018 (GMT -0400)
Muir Army Air Field

Weather History for KMUI - June, 2014

Change the Weather History Date:

Wednesday, June 4, 2014

  Actual Average Record
Temperature  
Mean Temperature 68 °F -  
Max Temperature 80 °F 73 °F 80 °F (2014)
Min Temperature 58 °F 58 °F 47 °F (2011)
Cooling Degree Days 4    
Growing Degree Days 18 (Base 50)    
Moisture  
Dew Point 60 °F    
Average Humidity 91    
Maximum Humidity 100    
Minimum Humidity 36    
Precipitation  
Precipitation 0.11 in - - ()
Sea Level Pressure  
Sea Level Pressure 29.84 in    
Wind  
Wind Speed 2 mph (NNE)    
Max Wind Speed 10 mph    
Max Gust Speed -    
Visibility 5 miles    
Events Fog , Rain    
Averages and records for this station are not official NWS values.
T = Trace of Precipitation, MM = Missing Value Source: NWS Daily Summary

Daily Weather History Graph

Daily Weather History Graph

Search for Another Location

Airport or City:

Astronomy

Jun. 04, 2014 Rise Set
Actual Time 5:37 AM EDT 8:32 PM EDT
Civil Twilight 5:04 AM EDT 9:05 PM EDT
Nautical Twilight 4:23 AM EDT 9:46 PM EDT
Astronomical Twilight 3:35 AM EDT 10:34 PM EDT
Moon 11:55 AM EDT (6/4) 12:29 AM EDT (6/4)
Length of Visible Light 16h 00m
Length of Day
14h 55m
Waxing Crescent, 39% of the Moon is Illuminated
Jun 4
Waxing Crescent
Jun 5
First Quarter
Jun 13
Full
Jun 19
Last Quarter
Jun 27
New

Hourly Weather History & Observations

Time (EDT) Temp. Dew Point Humidity Pressure Visibility Wind Dir Wind Speed Gust Speed Precip Events Conditions
12:24 AM 62.6 °F 62.6 °F 100% 29.85 in 2.0 mi ENE 1.2 mph - N/A   Mist
12:26 AM 62.6 °F 62.6 °F 100% 29.86 in 1.2 mi NNE 2.3 mph - N/A   Mist
12:28 AM 62.6 °F 62.6 °F 100% 29.86 in 0.8 mi NNE 2.3 mph - N/A   Mist
12:36 AM 60.8 °F 60.8 °F 100% 29.86 in 1.0 mi ENE 2.3 mph - N/A   Mist
12:38 AM 60.8 °F 60.8 °F 100% 29.86 in 1.2 mi Calm Calm - N/A   Mist
12:40 AM 60.8 °F 60.8 °F 100% 29.86 in 1.0 mi NE 2.3 mph - N/A   Mist
12:44 AM 62.6 °F 62.6 °F 100% 29.86 in 0.8 mi Calm Calm - N/A   Mist
12:46 AM 62.6 °F 62.6 °F 100% 29.86 in 1.0 mi Calm Calm - N/A   Mist
12:50 AM 62.6 °F 62.6 °F 100% 29.86 in 1.2 mi Calm Calm - N/A   Mist
12:52 AM 62.6 °F 62.6 °F 100% 29.86 in 1.5 mi NE 2.3 mph - N/A   Mist
12:54 AM 62.6 °F 62.6 °F 100% 29.86 in 1.0 mi NNE 2.3 mph - N/A   Mist
12:56 AM 60.8 °F 60.8 °F 100% 29.86 in 0.8 mi North 1.2 mph - N/A   Mist
12:58 AM 61.5 °F 61.5 °F 100% 29.86 in 0.8 mi Calm Calm - N/A   Mist
1:10 AM 60.8 °F 60.8 °F 100% 29.86 in 1.0 mi Calm Calm - N/A   Mist
1:12 AM 60.8 °F 60.8 °F 100% 29.85 in 1.5 mi Calm Calm - N/A   Mist
1:14 AM 60.8 °F 60.8 °F 100% 29.85 in 2.0 mi Calm Calm - N/A   Mist
1:18 AM 60.8 °F 60.8 °F 100% 29.85 in 1.5 mi ENE 1.2 mph - N/A   Mist
1:20 AM 60.8 °F 60.8 °F 100% 29.85 in 1.0 mi NE 2.3 mph - N/A   Mist
1:22 AM 60.8 °F 60.8 °F 100% 29.85 in 0.8 mi Calm Calm - N/A   Mist
1:28 AM 60.8 °F 60.8 °F 100% 29.85 in 1.0 mi NNE 1.2 mph - N/A   Mist
1:38 AM 60.8 °F 60.8 °F 100% 29.85 in 0.8 mi NNE 2.3 mph - N/A   Mist
1:42 AM 60.8 °F 60.8 °F 100% 29.85 in 0.5 mi NNE 2.3 mph - N/A Fog Fog
1:50 AM 60.8 °F 60.8 °F 100% 29.85 in 0.8 mi Calm Calm - N/A   Mist
1:54 AM 60.8 °F 60.8 °F 100% 29.85 in 1.0 mi NE 2.3 mph - N/A   Mist
1:58 AM 61.0 °F 61.0 °F 100% 29.84 in 1.0 mi East 2.3 mph - N/A   Clear
2:04 AM 60.8 °F 60.8 °F 100% 29.85 in 1.2 mi Calm Calm - N/A   Clear
2:06 AM 60.8 °F 60.8 °F 100% 29.85 in 1.5 mi Calm Calm - N/A   Clear
2:08 AM 60.8 °F 60.8 °F 100% 29.85 in 2.0 mi Calm Calm - N/A   Clear
2:10 AM 60.8 °F 60.8 °F 100% 29.85 in 3.0 mi Calm Calm - N/A   Clear
2:12 AM 60.8 °F 60.8 °F 100% 29.85 in 2.0 mi Calm Calm - N/A   Clear
2:22 AM 60.8 °F 60.8 °F 100% 29.85 in 4.0 mi NNW 2.3 mph - N/A   Mist
2:36 AM 60.8 °F 60.8 °F 100% 29.84 in 2.5 mi Calm Calm - N/A   Mist
2:40 AM 60.8 °F 60.8 °F 100% 29.84 in 1.5 mi Calm Calm - N/A   Mist
2:42 AM 60.8 °F 60.8 °F 100% 29.84 in 1.2 mi North 1.2 mph - N/A   Mist
2:44 AM 59.0 °F 59.0 °F 100% 29.84 in 1.0 mi NE 2.3 mph - N/A   Mist
2:46 AM 59.0 °F 59.0 °F 100% 29.84 in 0.8 mi NE 2.3 mph - N/A   Mist
2:54 AM 59.0 °F 59.0 °F 100% 29.84 in 1.0 mi Calm Calm - N/A   Mist
2:58 AM 59.0 °F 59.0 °F 100% 29.84 in 1.2 mi Calm Calm - N/A   Mist
3:00 AM 59.0 °F 59.0 °F 100% 29.84 in 1.5 mi Calm Calm - N/A   Mist
3:02 AM 60.8 °F 60.8 °F 100% 29.84 in 2.5 mi Calm Calm - N/A   Mist
3:14 AM 60.8 °F 60.8 °F 100% 29.85 in 4.0 mi SSE 2.3 mph - N/A   Mist
3:56 AM 60.8 °F 60.8 °F 100% 29.85 in 1.8 mi WSW 1.2 mph - N/A   Mist
3:58 AM 60.8 °F 60.8 °F 100% 29.85 in 1.5 mi Calm Calm - N/A   Mist
4:00 AM 60.8 °F 60.8 °F 100% 29.85 in 1.2 mi West 1.2 mph - N/A   Mist
4:06 AM 59.0 °F 59.0 °F 100% 29.85 in 1.8 mi Calm Calm - N/A   Mist
4:12 AM 59.0 °F 59.0 °F 100% 29.85 in 1.2 mi Calm Calm - N/A   Mist
4:22 AM 59.0 °F 59.0 °F 100% 29.85 in 1.5 mi East 2.3 mph - N/A   Mist
4:28 AM 59.0 °F 59.0 °F 100% 29.85 in 1.8 mi ENE 1.2 mph - N/A   Mist
4:30 AM 59.0 °F 59.0 °F 100% 29.86 in 2.0 mi ENE 1.2 mph - N/A   Mist
4:36 AM 59.0 °F 59.0 °F 100% 29.86 in 3.0 mi Calm Calm - N/A   Mist
4:40 AM 59.0 °F 59.0 °F 100% 29.86 in 2.5 mi Variable 1.2 mph - N/A   Mist
4:42 AM 59.0 °F 59.0 °F 100% 29.86 in 3.0 mi Variable 1.2 mph - N/A   Mist
4:44 AM 59.0 °F 59.0 °F 100% 29.86 in 2.5 mi Variable 1.2 mph - N/A   Mist
4:50 AM 59.0 °F 59.0 °F 100% 29.86 in 1.8 mi Variable 1.2 mph - N/A   Mist
4:52 AM 59.0 °F 59.0 °F 100% 29.86 in 1.5 mi Variable 2.3 mph - N/A   Mist
4:56 AM 59.0 °F 59.0 °F 100% 29.86 in 1.8 mi North 1.2 mph - N/A   Mist
4:58 AM 58.3 °F 58.3 °F 100% 29.86 in 1.8 mi Variable 3.5 mph - N/A   Mist
5:00 AM 59.0 °F 59.0 °F 100% 29.86 in 3.0 mi Variable 3.5 mph - N/A   Mist
5:58 AM 65.1 °F 65.1 °F 100% 29.88 in 10.0 mi Variable 2.3 mph - N/A   Unknown
6:31 AM 64.4 °F 64.4 °F 100% 29.88 in 10.0 mi NNE 1.2 mph - N/A   Scattered Clouds
6:58 AM 63.5 °F 63.5 °F 100% 29.88 in 10.0 mi ENE 3.5 mph - N/A   Scattered Clouds
7:58 AM 65.3 °F 65.3 °F 100% 29.90 in 10.0 mi ENE 2.3 mph - N/A   Scattered Clouds
8:58 AM 72.5 °F 65.5 °F 79% 29.90 in 10.0 mi ENE 4.6 mph - N/A   Mostly Cloudy
9:58 AM 75.2 °F 64.4 °F 69% 29.90 in 10.0 mi North 6.9 mph - N/A   Mostly Cloudy
10:58 AM 74.8 °F 58.6 °F 57% 29.88 in 10.0 mi Variable 4.6 mph - N/A   Scattered Clouds
11:58 AM 77.7 °F 56.1 °F 47% 29.86 in 10.0 mi WSW 4.6 mph - 0.08 in   Scattered Clouds
12:58 PM 78.1 °F 53.2 °F 42% 29.85 in 10.0 mi West 6.9 mph - N/A   Scattered Clouds
1:58 PM 79.2 °F 51.4 °F 38% 29.84 in 10.0 mi WSW 5.8 mph - N/A   Mostly Cloudy
2:58 PM 79.2 °F 49.8 °F 36% 29.83 in 10.0 mi NNW 5.8 mph - N/A   Mostly Cloudy
3:58 PM 76.6 °F 55.0 °F 47% 29.82 in 10.0 mi WNW 5.8 mph - N/A   Overcast
4:58 PM 75.2 °F 55.4 °F 50% 29.82 in 10.0 mi NW 3.5 mph - N/A   Overcast
5:58 PM 74.3 °F 61.2 °F 63% 29.80 in 10.0 mi NW 3.5 mph - N/A   Overcast
6:58 PM 74.1 °F 53.4 °F 48% 29.78 in 10.0 mi NW 4.6 mph - N/A   Overcast
7:58 PM 71.8 °F 55.9 °F 57% 29.77 in 10.0 mi North 8.1 mph - N/A   Overcast
8:42 PM 69.8 °F 55.4 °F 60% 29.76 in 10.0 mi North 6.9 mph - N/A Rain Light Rain
8:58 PM 69.8 °F 54.1 °F 57% 29.75 in 10.0 mi North 10.4 mph - 0.00 in Rain Light Rain
9:20 PM 68.0 °F 55.4 °F 64% 29.76 in 10.0 mi North 4.6 mph - N/A Rain Light Rain
9:33 PM 66.2 °F 57.2 °F 73% 29.77 in 10.0 mi Variable 3.5 mph - N/A   Unknown
9:36 PM 66.2 °F 59.0 °F 78% 29.78 in 10.0 mi Variable 3.5 mph - N/A Rain Light Rain
9:49 PM 66.2 °F 60.8 °F 83% 29.78 in 10.0 mi Variable 2.3 mph - N/A   Unknown
9:51 PM 66.2 °F 59.0 °F 78% 29.78 in 10.0 mi Variable 3.5 mph - N/A Rain Light Rain
9:58 PM 66.6 °F 57.9 °F 74% 29.78 in 10.0 mi North 2.3 mph - 0.00 in Rain Light Rain
10:56 PM 60.8 °F 60.8 °F 100% 29.78 in 10.0 mi NNE 3.5 mph - N/A   Unknown
10:58 PM 60.8 °F 60.8 °F 100% 29.78 in 10.0 mi NNE 3.5 mph - 0.02 in   Unknown
11:03 PM 60.8 °F 60.8 °F 100% 29.78 in 10.0 mi Variable 2.3 mph - N/A Rain Light Rain
11:18 PM 60.8 °F 60.8 °F 100% 29.77 in 10.0 mi NNE 5.8 mph - N/A   Unknown
11:19 PM 60.8 °F 60.8 °F 100% 29.76 in 10.0 mi NNE 5.8 mph - N/A   Light Drizzle
11:21 PM 60.8 °F 60.8 °F 100% 29.76 in 10.0 mi NNE 5.8 mph - N/A   Unknown
11:24 PM 60.8 °F 60.8 °F 100% 29.76 in 10.0 mi NNE 5.8 mph - N/A Rain Light Rain
11:58 PM 61.9 °F 61.9 °F 100% 29.76 in 9.0 mi NNE 3.5 mph - 0.01 in Rain Light Rain